Weather History for KPOU - September, 2013

Change the Weather History Date:

Monday, September 23, 2013

  Actual Average Record
Temperature  
Mean Temperature 53 °F 60 °F  
Max Temperature 64 °F 72 °F 90 °F (1959)
Min Temperature 42 °F 48 °F 32 °F (1953)
Degree Days  
Heating Degree Days 12 6  
Month to date heating degree days 90 73  
Since 1 July heating degree days 93 90  
Cooling Degree Days 0 0  
Month to date cooling degree days 64 59  
Year to date cooling degree days 821 663  
Growing Degree Days 4 (Base 50)    
Moisture  
Dew Point 42 °F    
Average Humidity 68    
Maximum Humidity 93    
Minimum Humidity 43    
Precipitation  
Precipitation 0.00 in 0.15 in 1.46 in (2003)
Month to date precipitation 2.32 3.22  
Year to date precipitation 32.54 34.00  
Sea Level Pressure  
Sea Level Pressure 29.98 in    
Wind  
Wind Speed 3 mph (NNW)    
Max Wind Speed 14 mph    
Max Gust Speed 25 mph    
Visibility 10 miles    
Events      
T = Trace of Precipitation, MM = Missing Value Source: NWS Daily Summary

Daily Weather History Graph

Daily Weather History Graph

Search for Another Location

Airport or City:

Trip Planner

Search our weather history database for the weather conditions in past years. The results will help you decide how hot, cold, wet, or windy it might be!

Date:

Astronomy

Sep. 23, 2013 Rise Set
Actual Time 6:44 AM EDT 6:50 PM EDT
Civil Twilight 6:16 AM EDT 7:18 PM EDT
Nautical Twilight 5:44 AM EDT 7:50 PM EDT
Astronomical Twilight 5:11 AM EDT 8:23 PM EDT
Moon 9:17 PM EDT (9/23) 11:04 AM EDT (9/23)
Length of Visible Light 13h 01m
Length of Day
12h 06m
Waning Gibbous, 81% of the Moon is Illuminated
Sep 23
Waning Gibbous
Sep 26
Last Quarter
Oct 4
New
Oct 11
First Quarter
Oct 18
Full

Hourly Weather History & Observations

Time (EDT) Temp. Windchill Dew Point Humidity Pressure Visibility Wind Dir Wind Speed Gust Speed Precip Events Conditions
12:53 AM 51.1 °F - 45.0 °F 80% 29.91 in 10.0 mi Calm Calm - N/A   Overcast
1:53 AM 52.0 °F - 43.0 °F 71% 29.92 in 10.0 mi North 4.6 mph - N/A   Overcast
2:53 AM 50.0 °F - 41.0 °F 71% 29.92 in 10.0 mi Calm Calm - N/A   Scattered Clouds
3:53 AM 46.9 °F - 41.0 °F 80% 29.94 in 10.0 mi Calm Calm - N/A   Clear
4:53 AM 46.0 °F - 41.0 °F 83% 29.95 in 10.0 mi Calm Calm - N/A   Clear
5:53 AM 45.0 °F - 41.0 °F 86% 29.97 in 10.0 mi Calm Calm - N/A   Clear
6:53 AM 44.1 °F 41.5 °F 39.0 °F 82% 29.98 in 10.0 mi WNW 4.6 mph - N/A   Clear
7:53 AM 48.0 °F - 42.1 °F 80% 29.99 in 10.0 mi Calm Calm - N/A   Clear
8:53 AM 53.1 °F - 39.9 °F 61% 29.99 in 10.0 mi WNW 9.2 mph - N/A   Clear
9:53 AM 55.0 °F - 39.0 °F 55% 30.00 in 10.0 mi WNW 8.1 mph - N/A   Clear
10:53 AM 57.9 °F - 37.9 °F 47% 29.99 in 10.0 mi NW 5.8 mph - N/A   Clear
11:53 AM 59.0 °F - 37.9 °F 46% 30.00 in 10.0 mi NNW 8.1 mph - N/A   Clear
12:53 PM 61.0 °F - 39.0 °F 44% 29.99 in 10.0 mi NNW 4.6 mph - N/A   Clear
1:53 PM 63.0 °F - 39.9 °F 43% 29.97 in 10.0 mi North 8.1 mph - N/A   Clear
2:53 PM 64.0 °F - 42.1 °F 45% 29.96 in 10.0 mi NNE 8.1 mph - N/A   Clear
3:53 PM 63.0 °F - 42.1 °F 46% 29.96 in 10.0 mi North 6.9 mph - N/A   Clear
4:53 PM 64.0 °F - 42.1 °F 45% 29.96 in 10.0 mi NNW 4.6 mph - N/A   Clear
5:53 PM 62.1 °F - 42.1 °F 48% 29.97 in 10.0 mi North 6.9 mph - N/A   Clear
6:53 PM 57.0 °F - 42.1 °F 57% 29.99 in 10.0 mi Calm Calm - N/A   Clear
7:53 PM 50.0 °F - 45.0 °F 83% 30.00 in 10.0 mi Calm Calm - N/A   Clear
8:53 PM 46.9 °F - 45.0 °F 93% 30.01 in 10.0 mi Calm Calm - N/A   Clear
9:53 PM 46.9 °F - 44.1 °F 90% 30.03 in 10.0 mi Calm Calm - N/A   Clear
10:53 PM 45.0 °F - 43.0 °F 93% 30.05 in 10.0 mi Calm Calm - N/A   Clear
11:53 PM 45.0 °F - 42.1 °F 90% 30.05 in 10.0 mi Calm Calm - N/A   Clear